Location: Buffign�court
(47.8126°N, 6.0176°E)
Time: 15:42:10
(UTC+00:00)

Tsikada Rocket - Pass Details

Date: 16 June 2021
Orbit: 959 x 1008 km, 82.9° (Epoch: 03 August)

Event Time Altitude Azimuth Distance (km) Brightness Sun altitude
Exits shadow 23:28:37 31° 165° (SSE) 1,643 4.6 -18.8°
Maximum altitude 23:31:41 65° 94° (E) 1,062 4.1 -18.8°
Drops below altitude 10° 23:37:47 10° 14° (NNE) 2,707 7.5 -18.8°
Sets 23:40:18 0° 12° (NNE) 3,655 8.6 -18.8°
